Location: Prague
(50.0830°N, 14.4670°E)
Time: 09:29:18
(UTC+01:00)

Oscar 11 - Pass Details

Date: 06 December 2021
Orbit: 611 x 625 km, 97.6° (Epoch: 26 January)

Event Time Altitude Azimuth Distance (km) Brightness Sun altitude
Rises 06:28:12 0° 5° (N) 2,920 10.4 -11.7°
Reaches altitude 10° 06:30:35 10° 356° (N) 2,006 9.4 -11.4°
Maximum altitude 06:34:25 31° 294° (WNW) 1,095 7.8 -10.8°
Drops below altitude 10° 06:38:14 10° 232° (SW) 1,986 9.4 -10.2°
Sets 06:40:35 0° 222° (SW) 2,885 10.3 -9.9°
